#timestamp,LO_Frequency,Hit,StdDev 
1515906015.2,286047000.3,N
1515906035.1,286047001.0,N
1515906036.0,286047001.0,N
1515906055.8,286047000.0,N
1515906075.6,286047002.2,N
1515906095.5,286047001.6,N
1515906115.3,286047002.8,Y
1515906135.2,286047000.0,P
1515906155.9,286046999.7,N
1515906175.7,286047001.6,N
1515906195.6,286047001.6,N
1515906215.4,286047002.3,N
1515906235.2,286047004.0,Y
1515906255.1,286047001.5,P
1515906256.0,286047001.5,P
1515906275.8,286047003.7,P
1515906295.7,286047003.5,Y
1515906315.5,286047001.4,P
1515906335.3,286047004.0,P
1515906355.2,286047005.7,P
1515906375.0,286047005.6,Y
1515906375.9,286047005.6,P
1515906395.8,286047000.2,N
1515906415.6,286047001.7,N
1515906435.4,286047000.1,N
1515906455.3,286046999.8,N
1515906475.1,286047002.6,N
1515906495.8,286047002.6,N
1515906515.7,286046999.7,N
1515906535.5,286047002.2,N
1515906555.4,286047002.5,N
1515906575.2,286047002.0,N
1515906595.0,286047002.5,N
1515906595.9,286047002.5,N
1515906615.8,286047002.1,N
1515906635.6,286047001.7,N
1515906655.4,286047004.3,N
1515906675.3,286047002.7,N
1515906695.1,286047002.3,N
1515906715.9,286047002.0,N
1515906735.7,286047001.6,N
1515906755.5,286047003.0,N
1515906775.4,286047006.0,Y
1515906795.2,286047003.7,P
1515906815.0,286047003.4,P
1515906815.9,286047003.4,P
1515906835.8,286047003.5,Y
1515906855.6,286046998.5,P
1515906875.5,286046998.2,N
1515906895.3,286046999.9,N
1515906915.1,286047000.5,N
1515906935.9,286047000.3,N
1515906955.7,286047000.3,N
1515906975.5,286047001.7,N
1515906995.4,286047001.5,N
1515907015.2,286047003.6,N
1515907035.1,286047002.9,N
1515907036.0,286047002.9,N
1515907055.8,286047004.0,N
1515907075.6,286047003.9,N
1515907095.5,286047003.1,N
1515907115.3,286047003.2,N
1515907135.2,286047004.1,N
1515907155.9,286047005.7,Y
1515907175.7,286047002.9,P
1515907195.6,286047002.9,P
1515907215.4,286047005.3,P
1515907235.2,286047005.3,Y
1515907255.1,286047002.6,P
1515907256.0,286047002.6,P
1515907275.8,286047002.8,P
1515907295.7,286047001.5,Y
1515907315.5,286046998.3,P
1515907335.3,286046998.2,N
1515907355.2,286047002.4,N
1515907375.0,286046999.7,N
1515907375.9,286046999.7,N
1515907395.8,286046998.9,N
1515907415.6,286046998.6,N
1515907435.4,286046998.8,N
1515907455.3,286046998.9,N
1515907475.1,286046998.7,N
1515907495.8,286046999.1,N
1515907515.7,286046998.3,N
1515907535.5,286046999.1,N
1515907555.4,286047001.2,N
1515907575.2,286047000.0,N
1515907595.0,286047001.2,N
1515907595.9,286047001.2,N
1515907615.8,286047001.1,N
1515907635.6,286047002.2,N
1515907655.4,286047002.2,N
1515907675.3,286047004.0,N
1515907695.1,286047004.0,N
1515907715.9,286047003.0,N
1515907735.7,286047006.7,Y
1515907755.5,286047007.1,P
1515907775.4,286047007.0,N
1515907795.2,286047005.7,N
1515907815.1,286047005.3,N
1515907816.0,286047005.3,N
1515907835.8,286047006.3,N
1515907855.6,286047009.0,Y
1515907875.5,286047004.0,P
1515907895.3,286047003.2,P
1515907915.1,286047003.8,P
1515907935.9,286047001.9,N
1515907955.7,286047001.9,N
1515907975.6,286047001.7,N
1515907995.4,286047003.8,Y
1515908015.2,286047000.3,P
1515908035.1,286047002.0,N
1515908036.0,286047002.0,N
1515908055.8,286047000.0,N
1515908075.7,286047002.7,N
1515908095.5,286047002.5,N
1515908115.3,286047001.7,N
1515908135.2,286047003.5,Y
1515908155.0,286047003.9,P
1515908155.9,286047003.9,P
1515908175.7,286047003.6,P
1515908195.6,286047000.1,N
1515908215.4,286047002.0,N
1515908235.3,286047003.8,N
1515908255.1,286047001.7,N
1515908256.0,286047001.7,N
1515908275.8,286047001.9,N
1515908295.7,286047000.2,N
1515908315.5,286047002.6,N
1515908335.3,286047000.1,N
1515908355.2,286046999.8,N
1515908375.0,286047000.4,N
1515908375.9,286047000.4,N
1515908395.8,286047000.4,N
1515908415.6,286047002.7,N
1515908435.4,286047002.7,N
1515908455.3,286047000.2,N
1515908475.1,286047005.5,Y
1515908495.9,286047004.0,P
1515908515.7,286047003.6,P
1515908535.5,286047004.3,P
1515908555.4,286047001.8,N
1515908575.2,286047004.2,Y
1515908595.1,286047000.5,P
1515908596.0,286047000.5,N
1515908615.8,286047002.4,N
1515908635.6,286047002.7,N
1515908655.5,286047001.6,N
1515908675.3,286047001.3,N
1515908695.1,286047001.5,N
1515908715.9,286047002.6,N
1515908735.7,286047000.3,N
1515908755.6,286047002.5,N
1515908775.4,286047004.4,Y
1515908795.2,286046998.1,P
1515908815.1,286047001.1,N
1515908816.0,286047001.1,N
1515908835.8,286046998.4,N
1515908855.6,286047000.1,N
1515908875.5,286047004.2,Y
1515908895.3,286047004.4,P
1515908915.2,286047003.9,N
1515908935.0,286047003.5,N
1515908935.9,286047003.5,N
1515908955.7,286047003.3,N
1515908975.6,286047005.6,Y
1515908995.4,286047001.7,P
1515909015.3,286047004.2,P
1515909035.1,286047005.6,P
1515909055.8,286047007.2,Y
1515909075.7,286047001.8,P
1515909095.5,286047003.9,P
1515909115.4,286047004.1,P
1515909135.2,286047005.5,Y
1515909155.0,286046998.5,P
1515909155.9,286046998.5,N
1515909175.8,286046997.1,N
1515909195.6,286046999.2,N
1515909215.4,286046997.8,N
1515909235.3,286046994.9,N
1515909255.1,286046997.9,N
1515909275.9,286046995.0,N
1515909295.7,286046995.5,N
1515909315.5,286046993.7,N
1515909335.4,286046993.3,N
1515909355.2,286046996.0,N
1515909375.1,286046998.0,N
1515909376.0,286046998.0,N
1515909395.8,286046995.5,N
1515909415.6,286046997.2,N
1515909435.5,286046996.7,N
1515909455.3,286046999.1,N
1515909475.1,286046999.3,N
1515909495.9,286046998.2,N
1515909515.7,286046999.6,N
1515909535.6,286046997.4,N
1515909555.4,286046996.6,N
1515909575.2,286046996.8,N
1515909595.1,286047000.6,N
1515909596.0,286047000.6,N
